This is the latest recevied weather packets stored in our database for station/object WA4IKQ. If no packets are shown the sender has not sent any weather packets the latest 10 day(s).
| Time | Temp. | Humidity | Pressure | Rain* | Wind** | Luminosity | Snow |
|---|---|---|---|---|---|---|---|
| 1787505071 | 30.56° C | 65% | 1016.1 hPa | 0 mm | 3.13 m/s, 204° | - | - |
| 1787504854 | 30.56° C | 64% | 1016.2 hPa | 0 mm | 2.68 m/s, 172° | - | - |
| 1787504771 | 30.56° C | 64% | 1016.2 hPa | 0 mm | 2.68 m/s, 172° | - | - |
| 1787504578 | 31.11° C | 64% | 1016.4 hPa | 0 mm | 3.13 m/s, 181° | - | - |
| 1787504541 | 31.11° C | 64% | 1016.4 hPa | 0 mm | 3.13 m/s, 181° | - | - |
| 1787504469 | 31.11° C | 64% | 1016.4 hPa | 0 mm | 3.13 m/s, 181° | - | - |
| 1787504258 | 31.11° C | 63% | 1016.5 hPa | 0 mm | 1.79 m/s, 153° | - | - |
| 1787504170 | 31.11° C | 63% | 1016.5 hPa | 0 mm | 1.79 m/s, 153° | - | - |
| 1787503955 | 31.11° C | 62% | 1016.5 hPa | 0 mm | 3.13 m/s, 181° | - | - |
| 1787503870 | 31.11° C | 62% | 1016.5 hPa | 0 mm | 3.13 m/s, 181° | - | - |
| 1787503654 | 31.67° C | 60% | 1016.6 hPa | 0 mm | 2.68 m/s, 184° | - | - |
| 1787503571 | 31.67° C | 60% | 1016.6 hPa | 0 mm | 2.68 m/s, 184° | - | - |
| 1787503383 | 31.67° C | 63% | 1016.6 hPa | 0 mm | 4.92 m/s, 163° | - | - |
| 1787503277 | 31.67° C | 63% | 1016.6 hPa | 0 mm | 4.92 m/s, 163° | - | - |
| 1787503038 | 31.67° C | 63% | 1016.6 hPa | 0 mm | 1.79 m/s, 177° | - | - |
| 1787502971 | 31.67° C | 63% | 1016.6 hPa | 0 mm | 1.79 m/s, 177° | - | - |
| 1787502750 | 31.67° C | 61% | 1016.6 hPa | 0 mm | 2.24 m/s, 163° | - | - |
| 1787502670 | 31.67° C | 61% | 1016.6 hPa | 0 mm | 2.24 m/s, 163° | - | - |
| 1787502446 | 31.67° C | 63% | 1016.5 hPa | 0 mm | 1.79 m/s, 158° | - | - |
| 1787502375 | 31.67° C | 63% | 1016.5 hPa | 0 mm | 1.79 m/s, 158° | - | - |
| 1787502180 | 31.67° C | 63% | 1016.6 hPa | 0 mm | 4.02 m/s, 177° | - | - |
| 1787502069 | 31.67° C | 63% | 1016.6 hPa | 0 mm | 4.02 m/s, 177° | - | - |
| 1787501859 | 31.67° C | 64% | 1016.6 hPa | 0 mm | 2.24 m/s, 201° | - | - |
| 1787501774 | 31.67° C | 64% | 1016.6 hPa | 0 mm | 2.24 m/s, 201° | - | - |
| 1787501552 | 31.67° C | 63% | 1016.6 hPa | 0 mm | 2.24 m/s, 139° | - | - |
* Rain latest hour (hover to see other rain measurements)
** Current wind speed in m/s (hover to see current wind gust speed)